TimeCDT,TemperatureF,Dew PointF,Humidity,Sea Level PressureIn,VisibilityMPH,Wind Direction,Wind SpeedMPH,Gust SpeedMPH,PrecipitationIn,Events,Conditions,WindDirDegrees,DateUTC
12:15 AM,75.2,51.8,44,30.12,10.0,South,13.8,-,N/A,,Clear,170,2013-09-06 05:15:00
12:35 AM,73.4,51.8,47,30.12,10.0,SSE,12.7,-,N/A,,Clear,160,2013-09-06 05:35:00
12:55 AM,73.4,51.8,47,30.12,10.0,South,12.7,18.4,N/A,,Clear,170,2013-09-06 05:55:00
1:15 AM,73.4,51.8,47,30.12,10.0,South,12.7,-,N/A,,Clear,170,2013-09-06 06:15:00
1:35 AM,73.4,50.0,44,30.12,10.0,South,11.5,17.3,N/A,,Clear,180,2013-09-06 06:35:00
1:55 AM,73.4,50.0,44,30.12,10.0,South,11.5,-,N/A,,Clear,180,2013-09-06 06:55:00
2:15 AM,71.6,50.0,46,30.12,10.0,South,10.4,-,N/A,,Clear,190,2013-09-06 07:15:00
2:35 AM,71.6,50.0,46,30.12,10.0,South,6.9,-,N/A,,Clear,190,2013-09-06 07:35:00
2:55 AM,69.8,50.0,49,30.11,10.0,SSW,6.9,-,N/A,,Clear,200,2013-09-06 07:55:00
3:15 AM,68.0,50.0,52,30.11,10.0,SSW,6.9,-,N/A,,Clear,200,2013-09-06 08:15:00
3:35 AM,69.8,50.0,49,30.11,10.0,SSW,8.1,-,N/A,,Clear,200,2013-09-06 08:35:00
3:55 AM,69.8,48.2,46,30.10,10.0,SSW,8.1,-,N/A,,Clear,200,2013-09-06 08:55:00
4:15 AM,69.8,48.2,46,30.10,10.0,SSW,6.9,-,N/A,,Clear,200,2013-09-06 09:15:00
4:35 AM,68.0,46.4,46,30.10,10.0,SSW,5.8,-,N/A,,Clear,200,2013-09-06 09:35:00
4:55 AM,68.0,46.4,46,30.10,10.0,SSW,6.9,-,N/A,,Clear,200,2013-09-06 09:55:00
5:15 AM,66.2,46.4,49,30.10,10.0,SSW,6.9,-,N/A,,Clear,200,2013-09-06 10:15:00
5:35 AM,66.2,46.4,49,30.10,10.0,SSW,6.9,-,N/A,,Clear,200,2013-09-06 10:35:00
5:55 AM,66.2,46.4,49,30.09,10.0,SSW,6.9,-,N/A,,Clear,200,2013-09-06 10:55:00
6:15 AM,64.4,46.4,52,30.09,10.0,SSW,8.1,-,N/A,,Clear,210,2013-09-06 11:15:00
6:35 AM,64.4,46.4,52,30.09,10.0,SSW,6.9,-,N/A,,Clear,210,2013-09-06 11:35:00
6:55 AM,64.4,46.4,52,30.09,10.0,SSW,5.8,-,N/A,,Clear,200,2013-09-06 11:55:00
7:15 AM,64.4,46.4,52,30.09,10.0,South,4.6,-,N/A,,Clear,190,2013-09-06 12:15:00
7:35 AM,68.0,44.6,43,30.09,10.0,SSW,6.9,-,N/A,,Clear,200,2013-09-06 12:35:00
7:55 AM,68.0,46.4,46,30.10,10.0,South,9.2,-,N/A,,Clear,190,2013-09-06 12:55:00
8:15 AM,69.8,46.4,43,30.10,10.0,South,6.9,-,N/A,,Clear,190,2013-09-06 13:15:00
8:35 AM,71.6,46.4,41,30.10,10.0,SSW,5.8,-,N/A,,Clear,200,2013-09-06 13:35:00
8:55 AM,75.2,46.4,36,30.10,10.0,SSW,11.5,-,N/A,,Clear,200,2013-09-06 13:55:00
9:15 AM,78.8,48.2,34,30.10,10.0,SSW,15.0,-,N/A,,Clear,210,2013-09-06 14:15:00
9:55 AM,82.4,50.0,32,30.10,10.0,SW,11.5,-,N/A,,Clear,220,2013-09-06 14:55:00
10:15 AM,86.0,51.8,31,30.10,10.0,SSW,11.5,-,N/A,,Clear,200,2013-09-06 15:15:00
10:35 AM,87.8,51.8,29,30.10,10.0,SSW,11.5,-,N/A,,Clear,200,2013-09-06 15:35:00
10:55 AM,89.6,51.8,27,30.10,10.0,South,11.5,-,N/A,,Clear,190,2013-09-06 15:55:00
11:15 AM,91.4,51.8,26,30.10,10.0,SW,12.7,-,N/A,,Clear,220,2013-09-06 16:15:00
11:35 AM,95.0,51.8,23,30.09,10.0,South,11.5,-,N/A,,Clear,190,2013-09-06 16:35:00
11:55 AM,95.0,51.8,23,30.09,10.0,South,10.4,-,N/A,,Clear,180,2013-09-06 16:55:00
12:15 PM,96.8,51.8,22,30.09,10.0,SSW,10.4,-,N/A,,Clear,210,2013-09-06 17:15:00
12:35 PM,98.6,51.8,21,30.09,10.0,South,13.8,17.3,N/A,,Clear,170,2013-09-06 17:35:00
12:55 PM,98.6,51.8,21,30.08,10.0,South,12.7,19.6,N/A,,Clear,170,2013-09-06 17:55:00
1:15 PM,98.6,51.8,21,30.07,10.0,SSW,11.5,-,N/A,,Clear,200,2013-09-06 18:15:00
1:35 PM,98.6,51.8,21,30.07,10.0,South,15.0,23.0,N/A,,Clear,190,2013-09-06 18:35:00
1:55 PM,98.6,51.8,21,30.06,10.0,South,12.7,23.0,N/A,,Clear,170,2013-09-06 18:55:00
2:15 PM,100.4,51.8,20,30.06,10.0,South,15.0,21.9,N/A,,Clear,190,2013-09-06 19:15:00
2:35 PM,100.4,51.8,20,30.05,10.0,South,12.7,19.6,N/A,,Clear,180,2013-09-06 19:35:00
2:55 PM,100.4,51.8,20,30.04,10.0,South,11.5,20.7,N/A,,Clear,190,2013-09-06 19:55:00
3:15 PM,100.4,51.8,20,30.04,10.0,SSE,16.1,21.9,N/A,,Clear,160,2013-09-06 20:15:00
3:35 PM,100.4,51.8,20,30.03,10.0,South,11.5,18.4,N/A,,Clear,180,2013-09-06 20:35:00
3:55 PM,100.4,51.8,20,30.03,10.0,SSE,17.3,21.9,N/A,,Clear,160,2013-09-06 20:55:00
4:15 PM,100.4,51.8,20,30.02,10.0,South,17.3,23.0,N/A,,Clear,170,2013-09-06 21:15:00
4:35 PM,100.4,51.8,20,30.02,10.0,South,13.8,21.9,N/A,,Clear,180,2013-09-06 21:35:00
4:55 PM,100.4,51.8,20,30.01,10.0,SSE,20.7,28.8,N/A,,Clear,160,2013-09-06 21:55:00
5:15 PM,100.4,51.8,20,30.01,10.0,South,17.3,24.2,N/A,,Clear,170,2013-09-06 22:15:00
5:35 PM,98.6,51.8,21,30.00,10.0,South,15.0,23.0,N/A,,Clear,180,2013-09-06 22:35:00
5:55 PM,98.6,50.0,19,30.00,10.0,South,17.3,23.0,N/A,,Clear,170,2013-09-06 22:55:00
6:15 PM,98.6,50.0,19,30.00,10.0,South,13.8,-,N/A,,Clear,180,2013-09-06 23:15:00
6:35 PM,98.6,50.0,19,30.00,10.0,South,13.8,20.7,N/A,,Clear,180,2013-09-06 23:35:00
6:55 PM,96.8,50.0,20,29.99,10.0,South,11.5,-,N/A,,Clear,170,2013-09-06 23:55:00
7:15 PM,95.0,50.0,22,29.99,10.0,South,15.0,18.4,N/A,,Clear,170,2013-09-07 00:15:00
7:35 PM,95.0,50.0,22,29.99,10.0,South,12.7,17.3,N/A,,Clear,170,2013-09-07 00:35:00
7:55 PM,91.4,50.0,24,29.99,10.0,South,10.4,-,N/A,,Clear,170,2013-09-07 00:55:00
8:15 PM,89.6,50.0,26,30.00,10.0,South,12.7,-,N/A,,Clear,170,2013-09-07 01:15:00
8:35 PM,87.8,50.0,27,30.00,10.0,South,10.4,-,N/A,,Clear,170,2013-09-07 01:35:00
8:55 PM,86.0,50.0,29,30.01,10.0,South,10.4,16.1,N/A,,Clear,170,2013-09-07 01:55:00
9:15 PM,86.0,50.0,29,30.02,10.0,South,15.0,-,N/A,,Clear,170,2013-09-07 02:15:00
9:35 PM,84.2,50.0,30,30.02,10.0,SSE,11.5,18.4,N/A,,Clear,160,2013-09-07 02:35:00
9:55 PM,82.4,50.0,32,30.02,10.0,South,11.5,-,N/A,,Clear,170,2013-09-07 02:55:00
10:15 PM,82.4,50.0,32,30.02,10.0,South,12.7,16.1,N/A,,Clear,170,2013-09-07 03:15:00
10:35 PM,82.4,50.0,32,30.03,10.0,South,13.8,-,N/A,,Clear,170,2013-09-07 03:35:00
10:55 PM,82.4,50.0,32,30.03,10.0,South,11.5,-,N/A,,Clear,170,2013-09-07 03:55:00
11:15 PM,80.6,50.0,34,30.03,10.0,South,10.4,-,N/A,,Clear,180,2013-09-07 04:15:00
11:35 PM,78.8,50.0,36,30.03,10.0,South,9.2,-,N/A,,Clear,190,2013-09-07 04:35:00
11:55 PM,77.0,50.0,39,30.03,10.0,SSW,5.8,-,N/A,,Clear,200,2013-09-07 04:55:00